Погода в Саянске

Россия / Красноярский край     54°09′02″N   91°53′01″E
темп.,
°C
ветер,
м/с
пор.,
м/с
влажн.,
%
обл.,
%
осадки,
мм/ч
давл.,
гПа
погр.,
м
18 августа, чт
чт1801:00+9юз3586100 1.0 1013207
04:00+8ююв119184 0.8 101220
07:00+8ююв12895 0.8 101376
10:00+12ююз447040 0.2 1013916
13:00+14юз446097 1.3 10121418
16:00+13з235988 0.1 1012724
19:00+14всв116234 0.1 101252
22:00+9юв11778 0.0 101312
19 августа, пт
пт1901:00+7вюв11841 0.0 101310
04:00+6всв11875 0.0 101210
07:00+7св11825 0.0 101251
10:00+13с116188 0.0 1011659
13:00+14зюз3358100 1.1 10111212
16:00+15зюз3351100 0.6 10111462
19:00+12зсз3575100 1.4 1012189
22:00+10ссв1187100 1.1 101320
20 августа, сб
сб2001:00+9ссз1193100 1.8 101422
04:00+9зсз1194100 1.3 101545
07:00+9з259481 1.8 1016273
10:00+11зсз447970 0.1 1017522
13:00+15зсз455851 0.6 10161478
16:00+16зсз444599 0.1 10161732
19:00+13ссз347012 0.4 1016105
22:00+10ссз017953 0.1 101811
21 августа, вс
вс2101:00+10ю117999 0.1 101810
04:00+9юв1183100 0.0 101717
07:00+9ююв2284100 0.0 101796
10:00+11ююв2272100 0.0 1017361
13:00+16ююз2352100 0.0 10161263
16:00+17зюз2445100 0.0 10141818
19:00+15зюз1157100 0.0 101415
22:00+13с1168100 0.0 101612
22 августа, пн
пн2201:00+11ю0186100 0.7 101719
04:00+11сз1191100 0.3 101712
07:00+10ююв1294100 1.9 101860
10:00+12з3687100 1.2 1019486
13:00+11з3590100 1.9 1021461
16:00+10сз2490100 0.6 1022307
19:00+10сз2386100 0.6 1022237
22:00+8зсз119288 0.1 102427